Weather WX

World > North America > United States > North Dakota

Killdeer, North Dakota Regional Weather

Lat: 47.37N, Lon: 102.75W
Wx Zone: NDZ018
Warning FLW WEATHER ALERT - (More Info. Click Here) Warning
Feedback

Killdeer, ND Regional Weather

Expires:201907181400;;251570
ASUS43 KBIS 181310
RWRND 

NORTH DAKOTA REGIONAL WEATHER ROUNDUP
NATIONAL WEATHER SERVICE BISMARCK ND
800 AM CDT THU JUL 18 2019

NOTE: "FAIR" INDICATES FEW OR NO CLOUDS BELOW 12,000 FEET WITH NO
SIGNIFICANT WEATHER AND/OR OBSTRUCTIONS TO VISIBILITY.



NDZ018>021-031>035-040>046-181400-
SOUTHWEST NORTH DAKOTA
  
CITY           SKY/WX    TMP DP  RH WIND       PRES   REMARKS
BISMARCK       CLOUDY    65  63  93 CALM      29.69R                  
DICKINSON      PTSUNNY   64  59  83 W8        29.71S                  
GARRISON         N/A     65  62  90 W8        29.64S                  
HETTINGER ARPT PTSUNNY   62  59  90 CALM      29.75S                  
$$
 

SKY/WX - Weather  TMP - Temperature  DP - Dew Point  RH - Relative Humidity
WIND - Wind Direction/Speed PRES - Barometric Pressure VSB - Visibility
WCI - Wind Chill Index E13G22 Wind - East Wind 13 mph/Gusts of 22 mph